Voltar ao catálogo

COSMOS 1795

AtivoMilitarLEO
NORAD 17139·PAYLOAD·🇷🇺 Russia

Lançado Nov 21, 1986 de Plesetsk Cosmodrome

Loading…

Próximas Passagens (próximas 24 horas)

TLE

AtualizadoSource: Space-Track

Época: Sep 14, 2026, 12:31 UTC

1 17139U 86092B   26257.52177372 -.00000021  00000-0 -32778-4 0  9998
2 17139  74.0108 276.3990 0009290  64.2512  89.3713 12.47817039813688

Acompanhe COSMOS 1795 em tempo real com AllMySat

Download on the App Store